BEIDOU-3 M23 1 44542U 19061A 21110.64408034 .00000005 00000-0 10000-3 0 9999 2 44542 54.7319 246.4927 0007350 337.0059 41.0887 1.86231464 10718 BEIDOU-3 M24 1 44543U 19061B 21111.39140057 .00000000 00000-0 10000-3 0 9996 2 44543 54.7307 246.4368 0004595 334.5892 95.3226 1.86231656 10734 YZ-1 R/B 1 44544U 19061C 21111.40956763 .00000001 00000-0 00000-0 0 9995 2 44544 54.8301 247.8402 0031404 239.4113 120.2497 1.80433622 10416